Flag for China Weather past 2 weeks in Shantou, Guangdong, China

Now
70 °F

Overcast.


Feels Like: 70 °F
Forecast: 59 / 76 °F
Wind: 3 mph from East

Location: Shantou Airport

Current Time: Mar 28, 2015 at 12:36:11 PM

Latest Report: Mar 28, 2015 at 11:00 AM


Visibility: N/A

Pressure: 30.15 "Hg

Humidity: 69%

Dew point: 59 °F

Location of ShantouLocation

Historic Weather in Shantou — Graph

°F

Shantou temperature yesterday

Maximum temperature yesterday: 79 °F (at 3:00 PM)
Minimum temperature yesterday: 61 °F (at 6:00 AM)
Average temperature yesterday: 68 °F

Past Weeks' High & Low Weather Summary

 TemperatureHumidityPressure
High90 °F (Mar 19, 4:00 PM)100% (Mar 14, 6:00 AM)30.33 "Hg (Mar 14, 6:00 AM)
Low55 °F (Mar 26, 3:00 AM)40% (Mar 23, 12:00 PM)29.80 "Hg (Mar 18, 4:00 PM)
Average68 °F80%30.08 "Hg
* Reported Mar 13 10:00 AM — Mar 28 10:00 AM, Shantou, Weather by CustomWeather, © 2015

Note: Actual official high and low records may vary slightly from our data, if they occured in-between our weather recording intervals... More about our weather records

Advertising

Shantou weather history for previous 24 hours

 ConditionsComfort  
Time TempWeatherWind HumidityBarometerVisibility
10:00 AM
Sat, Mar 28
68 °FOvercast.6 mph73%30.15 "HgN/A
9:00 AM66 °FOvercast.6 mph83%30.15 "HgN/A
8:00 AM64 °FOvercast.6 mph88%30.15 "HgN/A
7:00 AM64 °FOvercast.3 mph88%30.12 "HgN/A
6:00 AM64 °FPassing clouds.6 mph88%30.09 "HgN/A
5:00 AM64 °FPassing clouds.6 mph83%30.09 "HgN/A
4:00 AM66 °FPassing clouds.6 mph83%30.09 "HgN/A
3:00 AM66 °FPassing clouds.6 mph83%30.09 "HgN/A
2:00 AM66 °FPassing clouds.3 mph83%30.12 "HgN/A
1:00 AM66 °FPassing clouds.6 mph83%30.12 "HgN/A
12:00 AM66 °FPassing clouds.6 mph88%30.15 "Hg4 mi
11:00 PM
Fri, Mar 27
66 °FPassing clouds.1 mph94%30.15 "Hg4 mi
10:00 PM68 °FClear.1 mph83%30.15 "Hg4 mi
9:00 PM68 °FPassing clouds.3 mph88%30.12 "Hg4 mi
8:00 PM70 °FPassing clouds.6 mph83%30.12 "Hg4 mi
7:00 PM73 °FPassing clouds.1 mph83%30.09 "Hg4 mi
6:00 PM77 °FScattered clouds.3 mph69%30.07 "HgN/A
5:00 PM77 °FScattered clouds.3 mph69%30.07 "HgN/A
4:00 PM77 °FPartly sunny.3 mph69%30.09 "HgN/A
3:00 PM79 °FPartly sunny.3 mph61%30.09 "HgN/A
2:00 PM75 °FPartly sunny.3 mph69%30.12 "Hg4 mi
1:00 PM75 °FPartly sunny.3 mph69%30.15 "Hg4 mi
12:00 PM72 °FFog.3 mph78%30.21 "Hg3 mi
Weather by CustomWeather, © 2015

See weather overviewHow to use our weather pages